Weather History for KLWD - September, 2013

Change the Weather History Date:

Tuesday, September 24, 2013

  Actual Average Record
Temperature  
Mean Temperature 67 °F 62 °F  
Max Temperature 75 °F 73 °F 89 °F (1984)
Min Temperature 58 °F 50 °F 32 °F (1965)
Degree Days  
Heating Degree Days 0 5  
Month to date heating degree days 27 55  
Since 1 July heating degree days 36 63  
Cooling Degree Days 2 2  
Month to date cooling degree days 177 86  
Year to date cooling degree days 1046 924  
Growing Degree Days 14 (Base 50)    
Moisture  
Dew Point 55 °F    
Average Humidity 77    
Maximum Humidity 93    
Minimum Humidity 61    
Precipitation  
Precipitation 0.00 in 0.10 in 1.83 in (1973)
Month to date precipitation 3.12 2.93  
Sea Level Pressure  
Sea Level Pressure 29.83 in    
Wind  
Wind Speed 6 mph (East)    
Max Wind Speed 16 mph    
Max Gust Speed 22 mph    
Visibility 10 miles    
Events      
T = Trace of Precipitation, MM = Missing Value Source: NWS Daily Summary

Daily Weather History Graph

Daily Weather History Graph

Search for Another Location

Airport or City:

Trip Planner

Search our weather history database for the weather conditions in past years. The results will help you decide how hot, cold, wet, or windy it might be!

Date:

Astronomy

Sep. 24, 2013 Rise Set
Actual Time 7:05 AM CDT 7:08 PM CDT
Civil Twilight 6:38 AM CDT 7:36 PM CDT
Nautical Twilight 6:06 AM CDT 8:07 PM CDT
Astronomical Twilight 5:33 AM CDT 8:40 PM CDT
Moon 10:25 PM CDT (9/24) 12:22 PM CDT (9/24)
Length of Visible Light 12h 58m
Length of Day
12h 03m
Waning Gibbous, 73% of the Moon is Illuminated
Sep 24
Waning Gibbous
Sep 26
Last Quarter
Oct 4
New
Oct 11
First Quarter
Oct 18
Full

Hourly Weather History & Observations

Time (CDT) Temp. Dew Point Humidity Pressure Visibility Wind Dir Wind Speed Gust Speed Precip Events Conditions
12:53 AM 60.1 °F 50.0 °F 69% 29.84 in 10.0 mi SE 6.9 mph - N/A   Clear
1:53 AM 61.0 °F 50.0 °F 67% 29.83 in 10.0 mi SE 9.2 mph - N/A   Partly Cloudy
2:53 AM 61.0 °F 51.1 °F 70% 29.82 in 10.0 mi SE 6.9 mph 16.1 mph N/A   Clear
3:53 AM 60.1 °F 51.1 °F 72% 29.81 in 10.0 mi SE 9.2 mph - N/A   Partly Cloudy
4:53 AM 62.1 °F 52.0 °F 70% 29.80 in 10.0 mi SE 8.1 mph 17.3 mph N/A   Scattered Clouds
5:53 AM 59.0 °F 52.0 °F 78% 29.80 in 10.0 mi ESE 5.8 mph - N/A   Clear
6:53 AM 57.9 °F 52.0 °F 81% 29.81 in 10.0 mi ESE 5.8 mph - N/A   Clear
7:53 AM 57.9 °F 52.0 °F 81% 29.81 in 10.0 mi ESE 4.6 mph - N/A   Clear
8:53 AM 60.1 °F 53.1 °F 78% 29.81 in 10.0 mi ESE 8.1 mph - N/A   Mostly Cloudy
9:53 AM 63.0 °F 54.0 °F 72% 29.83 in 10.0 mi SSE 6.9 mph - N/A   Overcast
10:53 AM 64.9 °F 55.0 °F 70% 29.83 in 10.0 mi SE 6.9 mph - N/A   Overcast
11:53 AM 66.0 °F 55.9 °F 70% 29.83 in 10.0 mi ESE 5.8 mph - N/A   Mostly Cloudy
12:53 PM 66.9 °F 55.9 °F 68% 29.83 in 10.0 mi East 6.9 mph - N/A   Overcast
1:53 PM 70.0 °F 57.9 °F 65% 29.83 in 10.0 mi ESE 5.8 mph - N/A   Mostly Cloudy
2:53 PM 71.1 °F 57.0 °F 61% 29.83 in 10.0 mi ENE 4.6 mph - N/A   Mostly Cloudy
3:53 PM 72.0 °F 57.9 °F 61% 29.82 in 10.0 mi ESE 4.6 mph - N/A   Scattered Clouds
4:53 PM 72.0 °F 59.0 °F 64% 29.83 in 10.0 mi NNE 10.4 mph 16.1 mph N/A   Mostly Cloudy
5:53 PM 69.1 °F 60.1 °F 73% 29.84 in 10.0 mi NE 6.9 mph - N/A   Overcast
6:53 PM 66.9 °F 59.0 °F 76% 29.86 in 10.0 mi East 4.6 mph - N/A   Overcast
7:53 PM 63.0 °F 59.0 °F 87% 29.86 in 10.0 mi NE 3.5 mph - N/A   Overcast
8:53 PM 62.1 °F 57.9 °F 86% 29.87 in 10.0 mi North 3.5 mph - N/A   Clear
9:53 PM 60.1 °F 57.0 °F 90% 29.87 in 10.0 mi NNW 8.1 mph - N/A   Clear
10:53 PM 60.1 °F 57.0 °F 90% 29.88 in 10.0 mi North 6.9 mph - N/A   Clear
11:53 PM 59.0 °F 57.0 °F 93% 29.88 in 10.0 mi North 6.9 mph - N/A   Partly Cloudy